map of OPO home
OPO - Airport
Location
City:  Porto, Porto, Portugal
Name:Francisco S Carneiro
ICAO:LPPR
IATA:OPO

Details
Type:Airport (Aerodrome, Airfield)
Use:Public/Civil, International (customs port of entry)
Latitude:4114'53"N (41.248055)
Longitude:840'53"W (-8.681388)
Datum:WGS 1984
Elevation:228 ft (69 m)
Variation:2.22W (WMM2015 magnetic declination)
0.13 annual change
Runways:1
Longest:11417 × 148 ft (3480 × 45 m), paved

Time
Time Zone:UTC+0 (DST+1)
Local Time:

Weather
METAR:LPPR 200530Z VRB02KT 9999 FEW020 13/11 Q1000
TAF:LPPR 200500Z 2006/2106 VRB03KT 9999 FEW020 SCT040
TEMPO 2006/2106 7000 SHRA BKN018 PROB40
TEMPO 2006/2016 5000 SHRA BKN012 FEW020CB
BECMG 2008/2011 27008KT
BECMG 2016/2018 23013KT
BECMG 2018/2020 31008KT
BECMG 2100/2102 24010KT

Related Locations
Nearby:
Farthest:NZKM: 12401 mi / 19957 km
Karamea, WTC, NZ

Find:

   beyond  
but within

Other Information
Maps:
NOTAMs:
Links:
Sources:

  
  • flag of Portugal
  • flag of Porto
  

Sectional Chart

Flight Planning
at skyvector.com

Satellite Image

Google Maps Satellite view

 

Copyright © 2004-2018 Karl L. Swartz. All rights reserved.
The Great Circle Mapper name and logo are trademarks of the Great Circle Mapper.
All other trademarks mentioned herein belong to their respective owners.
Please see credits for attibutions and further copyright information.

  Follow gcmap on Facebook Follow gcmap on Twitter Follow gcmap on Google+ GCmap on LinkedIn

hCard Microformat

Geo Microformat